Regional Weather Roundup
Issued by NWS Sterling, VA

Current Version | Previous Version | Text Only | Print | Product List | Glossary On
Versions: 1 2 3 4 5 6 7 8 9 10 11 12 13 14 15 16 17 18 19 20 21 22 23 24 25 26 27
000
ASUS41 KLWX 301213
RWRLWX

REGIONAL WEATHER ROUNDUP
NATIONAL WEATHER SERVICE BALTIMORE MD/WASHINGTON DC
800 AM EDT FRI SEP 30 2022

Note: "FAIR" indicates few or no clouds below 12,000 feet
with no significant weather and/or obstructions to visibility.
 TC=TEMPERATURE CELSIUS

 * =Non NWS site. Station does not report precipitation (e.g. rain,
    snow, etc.), thunder, or fog.

DCZ001-MDZ009-015-VAZ040>042-051-053>054-301300-
WASHINGTON METRO

CITY           SKY/WX    TMP DP  RH WIND       PRES   REMARKS
WASHINGTON NAT CLOUDY    56  45  66 N14       30.26F
DULLES         CLOUDY    52  44  74 N8        30.28R
ANDREWS AFB    CLOUDY    53  45  75 N14       30.22F
FT BELVOIR     CLOUDY    56  45  68 N5        30.24S
QUANTICO       CLOUDY    57  50  78 N10       30.26R
COLLEGE PARK*  CLOUDY    54  46  74 N6        30.27S
LEESBURG*      CLOUDY    50  45  81 N12G18    30.30S
MANASSAS*      CLOUDY    52  45  77 N13       30.27S
GAITHERSBURG*  CLOUDY    50  45  83 VRB3      30.29S

$$

MDZ006>007-011-014-301300-
BALTIMORE METRO

CITY           SKY/WX    TMP DP  RH WIND       PRES   REMARKS
BWI AIRPORT    CLOUDY    56  46  69 NE10      30.26F
MARTIN STATE   SUNNY     54  46  76 N5        30.29F
ANNAPOLIS      CLOUDY    60  51  72 NE13G21   30.25F
ABERDEEN*      CLOUDY    54  46  74 NE9       30.26S
FORT MEADE*    CLOUDY    54  46  76 NE3       30.29S

$$

MDZ012-015-019>023-301300-
MARYLAND EASTERN SHORE

CITY           SKY/WX    TMP DP  RH WIND       PRES   REMARKS
OCEAN CITY     CLOUDY    65  57  75 NE20G28   30.19S
SALISBURY      CLOUDY    60  55  83 N9        30.19S
CAMBRIDGE*     SUNNY     57  54  88 N10       30.22R
EASTON*        SUNNY     55  55 100 N12G23    30.27S

$$

MDZ017>025-301300-
SOUTHERN MARYLAND

CITY           SKY/WX    TMP DP  RH WIND       PRES   REMARKS
PATUXENT RIVER CLOUDY    62  52  69 NE12G21   30.21R
ST INIGOES     CLOUDY    64  53  67 NE12G22   30.19R
LEONARDTOWN*   NOT AVBL

$$

MDZ003>005-301300-
NORTH CENTRAL MARYLAND

CITY           SKY/WX    TMP DP  RH WIND       PRES   REMARKS
FREDERICK*     CLEAR     48  46  93 NE8       30.31S
HAGERSTOWN APT CLOUDY    47  42  83 N7        30.31F
WESTMINSTER*   CLOUDY    50  45  81 CALM      30.30S

$$

MDZ501>502-301300-
WESTERN MARYLAND

CITY           SKY/WX    TMP DP  RH WIND       PRES   REMARKS
OAKLAND*       FAIR      39  37  93 SE14G20   30.27F WCI  31
CUMBERLAND*    CLOUDY    45  43  91 N3        30.37S

$$

VAZ025>031-301300-
SHENANDOAH VALLEY

CITY           SKY/WX    TMP DP  RH WIND       PRES   REMARKS
WINCHESTER*    CLOUDY    45  43  93 CALM      30.30R
FRONT ROYAL*   CLOUDY    45  43  93 CALM      30.30S
LURAY*         CLOUDY    46  45  93 N8        30.28S
NEW MARKET*    CLOUDY    48  46  90 N6        30.28F
STAUNTON*      CLOUDY    46  44  93 NE7       30.29S
WAYNESBORO*    CLOUDY    46  45  96 MISG      30.26F

$$

WVZ021-048>050-054>055-301300-
EASTERN WEST VIRGINIA PANHANDLE

CITY           SKY/WX    TMP DP  RH WIND       PRES   REMARKS
MARTINSBURG    CLOUDY    49  42  77 N8        30.30F
PETERSBURG*    CLOUDY    43  43 100 CALM      30.34R FOG

$$

VAZ036>039-050-301300-
CENTRAL FOOTHILLS

CITY           SKY/WX    TMP DP  RH WIND       PRES   REMARKS
CHARLOTTESVILL CLOUDY    55  45  68 NE12      30.24S
CULPEPER*      CLOUDY    51  45  77 N7        30.27S
ORANGE*        CLOUDY    50  45  81 N7        30.27S
GORDONSVILLE*  NOT AVBL
WARRENTON*     NOT AVBL

$$

VAZ055>057-301300-
NORTH AND CENTRAL PIEDMONT

CITY           SKY/WX    TMP DP  RH WIND       PRES   REMARKS
FREDERICKSBRG* CLOUDY    55  46  72 N7        30.23R
STAFFORD*      CLOUDY    55  46  69 N10       30.28R

$$

NCZ024-NYZ072-PAZ021-071-VAZ022-071-301300-
OTHER REGIONAL OBSERVATIONS

CITY           SKY/WX    TMP DP  RH WIND       PRES   REMARKS
NEW YORK CITY  CLOUDY    53  40  61 NE8       30.37S
PHILADELPHIA   CLOUDY    56  46  69 NE13      30.30F
PITTSBURGH     MOCLDY    43  40  89 NE6       30.30S
ROANOKE        CLOUDY    52  44  74 CALM      30.22S
RICHMOND       CLOUDY    57  51  80 N17       30.17S
RALEIGH        RAIN      56  54  93 NE21G29   30.03F FOG

$$

ANZ530>537-301300-
MARINE OBSERVATIONS

STATION/POSITION TIME  TEMP    WIND        PRES
                       AIR SEA DIR/SP/G
                 (UTC) (F)     (DEG/KT/KT) (MB)
THOMAS PT LIGHT  1200   58      10/ 21/ 23 1024.8F
TOLCHESTER       1130   56 66   40/  4/ 10 1025.0F
GOOSES REEF      1148   58 71   30/ 23/ 31 1023.5F
COVE POINT       1130   59      20/ 17/ 22 1023.4R
BALT HARBOR      1130   56 72   60/ 11/ 15 1024.8R
BALT KEY BRIDGE  1130           40/ 12/ 13 1025.0S
ANNAPOLIS USNA   1130   59 72   10/ 10/ 15 1024.2F
ANNAPOLIS CBIBS  1148   58 68   30/ 17/ 25 1023.7F
WASH DC CHANNEL  1130   56 69   20/  3/  7 1024.4F
DAHLGREN         1130   56 67   10/  3/  8 1022.8R
LEWISETTA        1130   62 67   50/ 12/ 17 1022.4R
SOLOMONS ISLAND  1130   59 71   30/ 13/ 17 1021.7R
PINEY POINT      1130           60/ 11/ 18   N/A
POTOMAC BUOY     1148   60 70   40/ 17/ 25   N/A
CAMBRIDGE PIER   1130   58 67   50/ 12/ 17 1023.1S
BISHOPS HEAD     1130   59 63   30/ 16/ 20 1022.2R
CHESAPEAKE CITY  1130   54 69   40/  4/  7 1025.7F

$$




USA.gov is the U.S. government's official web portal to all federal, state and local government web resources and services.